Location: Unspecified
(0.0000°N, 0.0000°E)
Time: 02:37:18
(UTC+00:00)

N. Korean satellite - Pass Details

Date: 21 August 2019
Orbit: 457 x 507 km, 97.2° (Epoch: 16 August)

Event Time Altitude Azimuth Distance (km) Brightness Sun altitude
Rises 05:18:17 0° 21° (NNE) 2,509 10.7 -11.0°
Reaches altitude 10° 05:20:25 10° 28° (NNE) 1,626 9.8 -10.5°
Maximum altitude 05:23:44 43° 101° (E) 668 7.8 -9.7°
Drops below altitude 10° 05:27:02 10° 173° (S) 1,612 9.2 -8.9°
Sets 05:29:08 0° 180° (S) 2,484 10.0 -8.3°
